Dati Storici

Data ora Umidita' aria (%) Temperatura aria (°C) Rad globale (W/m²) Gonioanemometro (°) Tacoanemometro (m/s) Pioggia (mm)
12-06-2020 23:30 84.3 % 20.082 -66.608 2.005 0 0
12-06-2020 23:20 82.8 % 20.082 -63.083 0.807 0 0
12-06-2020 23:10 81.9 % 20.186 -68.563 2.932 0 0
12-06-2020 23:00 80.3 % 20.332 -63.652 1.739 0 0
12-06-2020 22:50 79.1 % 20.516 -72.747 0.792 0 0
12-06-2020 22:40 78.1 % 20.632 -67.655 -0.007 0 0
12-06-2020 22:30 78.1 % 20.739 -64.433 0.25 0 0
12-06-2020 22:20 76.5 % 20.856 -64.195 1.007 0 0
12-06-2020 22:10 75.9 % 20.889 -69.956 1.946 0 0
12-06-2020 22:00 74.4 % 20.959 -65.869 -0.017 0 0
12-06-2020 21:50 72.6 % 21.099 -72.84 1.992 0 0
12-06-2020 21:40 70.7 % 21.204 -66.686 0.72 0 0
12-06-2020 21:30 70.1 % 21.283 -71.395 0.611 0 0
12-06-2020 21:20 70 % 21.351 -67.822 2.26 0 0
12-06-2020 21:10 71.4 % 21.389 -67.718 1.812 0 0
12-06-2020 21:00 71.4 % 21.43 -66.22 2.611 0 0
12-06-2020 20:50 71.8 % 21.504 -63.216 2.537 0 0
12-06-2020 20:40 71.4 % 21.723 -73.424 3.56 0 0
12-06-2020 20:30 72.4 % 21.83 -73.743 1.807 0 0
12-06-2020 20:20 72.4 % 22.005 -67.589 2.587 0 0

I dati sono presentati in modo automatico a scopo informativo. In seguito a verifica i dati possono subire modifiche o essere invalidati e non riportati negli archivi definitivi.